Tracking 29892 objects as of 21-Nov-2024
HD Live streaming from Space Station
objects crossing your sky now

STARLINK-31545

Track STARLINK-31545 now!
10-day predictions
STARLINK-31545 is classified as:


NORAD ID: 59400
Int'l Code: 2024-064C
Perigee: 450.0 km
Apogee: 452.5 km
Inclination: 43.0 °
Period: 93.5 minutes
Semi major axis: 6822 km
RCS: Unknown
Launch date: April 5, 2024
Source: United States (US)
Launch site: AIR FORCE EASTERN TEST RANGE (AFETR)
Your satellite tracking list
Your tracking list is empty




NASA's NSSDC Master Catalog

Two Line Element Set (TLE):
1 59400U 24064C   24326.10555545 -.00003049  00000-0 -65791-4 0  9991
2 59400  42.9992 219.6985 0001811 267.0829  92.9820 15.40680916 36694
Source of the keplerian elements: AFSPC